Hourly Data Report for September 04, 2017

All times are specified in Local Standard Time (LST). Add 1 hour to adjust for Daylight Saving Time where and when it is observed.

DOAKTOWN AUTO RCS
NEW BRUNSWICK

46°35'06.090" N
66°00'35.071" W
43.00 m
8101201
71038
ADN

Download Data

Hourly Data (September 2017)
Hourly Data Report for September 4, 2017
Temp Definition
°C
Dew Point Temp Definition
°C
Rel Hum Definition
%
Wind Dir Definition
10's deg

Wind Spd Definition
km/h
Visibility Definition
km
Stn Press Definition
kPa
Hmdx Definition


Wind Chill Definition


Weather Definition


TIME
00:00 11.8 10.5 92 6 8   100.45     LegendNANA
01:00 11.7 10.9 95 6 9   100.22     LegendNANA
02:00 11.9 11.1 95 6 12   99.97     LegendNANA
03:00 11.9 11.2 95 7 8   99.81     LegendNANA
04:00 12.1 11.4 96 6 8   99.62     LegendNANA
05:00 12.2 11.5 96 7 3   99.49     LegendNANA
06:00 12.4 11.7 96 8 2   99.40     LegendNANA
07:00 12.6 12.0 96 14 2   99.36     LegendNANA
08:00 13.3 12.7 96 19 3   99.39     LegendNANA
09:00 14.4 13.5 95 25 9   99.38     LegendNANA
10:00 15.6 13.9 89 25 13   99.43     LegendNANA
11:00 16.8 12.8 77 26 21   99.55     LegendNANA
12:00 16.6 12.0 75 26 20   99.65     LegendNANA
13:00 17.4 11.4 68 26 20   99.76     LegendNANA
14:00 17.7 10.8 64 25 24   99.79     LegendNANA
15:00 18.4 11.4 64 26 23   99.83     LegendNANA
16:00 18.0 11.0 64 26 12   99.87     LegendNANA
17:00 18.2 11.3 64 25 13   99.90     LegendNANA
18:00 18.0 11.2 65 24 10   99.92     LegendNANA
19:00 15.6 11.3 76 24 7   100.01     LegendNANA
20:00 15.0 11.7 81 25 5   100.05     LegendNANA
21:00 15.2 12.1 82 24 3   100.05     LegendNANA
22:00 16.2 11.7 75 21 8   100.07     LegendNANA
23:00 16.7 12.4 76 23 10   100.08     LegendNANA

Notes on Data Quality.

Legend

  • E = Estimated
  • M = Missing
  • NA = Not Available
  • ‡ = Partner data that is not subject to review by the National Climate Archives
Date modified: